カタログに戻る

FENGYUN 1C DEB

運用中LEO
NORAD 30153·DEBRIS·🇨🇳 China

打ち上げ May 10, 1999 から Taiyuan Satellite Launch Center

Loading…

次のパス (今後24時間)

TLE

最新Source: Space-Track

元期: Sep 14, 2026, 00:08 UTC

1 30153U 99025TJ  26257.00575766  .00000465  00000-0  43534-3 0  9992
2 30153 100.4683 281.1389 0198639  26.5249   3.6360 13.79306192985698

AllMySatでFENGYUN 1C DEBをリアルタイム追跡

Download on the App Store